Regional Weather Roundup
Issued by NWS

Home | Current Version | Previous Version | Text Only | Print | Product List | Glossary On
Versions: 1 2 3 4 5 6 7 8 9 10 11 12 13 14 15 16 17 18 19 20 21 22 23 24 25 26 27 28 29 30 31 32 33 34 35 36 37 38 39 40 41 42 43 44 45 46 47 48 49 50
000
ASUS44 KFWD 311815
RWRTX
NORTH TEXAS HOURLY WEATHER ROUNDUP
NATIONAL WEATHER SERVICE FORT WORTH TX
100 PM CDT TUE MAY 31 2016

NOTE: "FAIR" INDICATES FEW OR NO CLOUDS BELOW 12,000 FEET WITH NO
SIGNIFICANT WEATHER AND/OR OBSTRUCTIONS TO VISIBILITY.

TXZ118-119-311900-
DALLAS/FORT WORTH METROPLEX

CITY           SKY/WX    TMP DP  RH WIND       PRES   REMARKS
DFW AIRPORT    CLOUDY    84  69  60 S5        29.85F
6HR MIN TEMP:  74; 6HR MAX TEMP:  86;

DALLAS LOVE    CLOUDY    87  71  58 VRB6      29.85F HX  93
6HR MIN TEMP:  74; 6HR MAX TEMP:  87;

FTW MEACHAM    CLOUDY    81  71  71 W3        29.85F
6HR MIN TEMP:  74; 6HR MAX TEMP:  85;

DAL-EXECUTIVE  PTSUNNY  N/A N/A N/A VRB6      29.86F
6HR MIN TEMP:  72; 6HR MAX TEMP:  87;

FTW-ALLIANCE   CLOUDY    80  71  74 W3        29.87S
6HR MIN TEMP:  72; 6HR MAX TEMP:  84;

FTW-NAS-JRB    CLOUDY    80  71  74 CALM      29.85F
6HR MIN TEMP:  74; 6HR MAX TEMP:  83;

FTW-SPINKS     PTSUNNY   81  72  74 SE5       29.88F
ARLINGTON      MOSUNNY   86  70  58 SE9       29.86F HX  90
6HR MIN TEMP:  76; 6HR MAX TEMP:  88;

GRAND PRAIRIE  SUNNY     82  70  65 S6        29.87F
ADDISON        MOSUNNY   86  72  62 S6        29.87F HX  92
MESQUITE       PTSUNNY   86  72  62 SE9       29.87F HX  92
LANCASTER      MOSUNNY   83  72  67 SE7       29.87F
6HR MIN TEMP:  71; 6HR MAX TEMP:  84;

$$

TXZ091>094-102>105-117-120-121-131>134-311900-
NORTH CENTRAL TEXAS

CITY           SKY/WX    TMP DP  RH WIND       PRES   REMARKS
SHRMAN/DENISON MOSUNNY   83  67  58 S8        29.87F
6HR MIN TEMP:  67; 6HR MAX TEMP:  83;

GAINESVILLE    PTSUNNY   82  69  62 SW8       29.90S
6HR MIN TEMP:  69; 6HR MAX TEMP:  85;

BOWIE          CLOUDY    74  65  72 W8        29.91R
6HR MIN TEMP:  68; 6HR MAX TEMP:  81;

BRIDGEPORT     TSTM      74  74  97 W5        29.91S
6HR MIN TEMP:  68; 6HR MAX TEMP:  79;

DECATUR        CLOUDY    77  70  79 S8        29.90F
6HR MIN TEMP:  71; 6HR MAX TEMP:  79; 6HR PCP:  0.02;

DENTON         CLOUDY    81  71  71 SW7       29.87F
6HR MIN TEMP:  71; 6HR MAX TEMP:  85;

MCKINNEY       CLOUDY    86  74  67 SE9       29.86F HX  94
6HR MIN TEMP:  71; 6HR MAX TEMP:  86;

GREENVILLE     MOSUNNY   84  70  61 CALM      29.87F
ROCKWALL       MOSUNNY   84  74  71 S7        29.86F HX  92
6HR MIN TEMP:  72; 6HR MAX TEMP:  85;

TERRELL        MOSUNNY   86  73  65 S9G17     29.87F HX  93
6HR MIN TEMP:  72; 6HR MAX TEMP:  86;

WAXAHACHIE     MOSUNNY   84  72  66 SE8       29.87F HX  90
6HR MIN TEMP:  72; 6HR MAX TEMP:  85;

CLEBURNE       CLOUDY    81  75  83 S8        29.87F
GRANBURY       CLOUDY    78  72  82 N5        29.87F THUNDER
6HR MIN TEMP:  72; 6HR MAX TEMP:  82;

$$

TXZ083>090-098>101-113>116-127>130-139>142-154-155-311900-
WESTERN NORTH TEXAS

CITY           SKY/WX    TMP DP  RH WIND       PRES   REMARKS
WICHITA FALLS  CLOUDY    72  69  90 SE5       29.91S THUNDER
6HR MIN TEMP:  70; 6HR MAX TEMP:  75; 6HR PCP:  0.05;

WF-KICKAPOO    CLOUDY    73  69  86 E3        29.92R
6HR MIN TEMP:  72; 6HR MAX TEMP:  77; 6HR PCP:  0.02;

VERNON         CLOUDY    82  58  44 E9        29.88F
6HR MIN TEMP:  62; 6HR MAX TEMP:  85;

ABILENE        PTSUNNY   81  68  64 S8        29.88F
6HR MIN TEMP:  70; 6HR MAX TEMP:  84;

ABILENE-DYESS  PTSUNNY   83  65  53 W7        29.87F
6HR MIN TEMP:  69; 6HR MAX TEMP:  83;

BRECKENRIDGE   CLOUDY    75  67  75 E10       29.87F THUNDER
6HR MIN TEMP:  72; 6HR MAX TEMP:  78;

GRAHAM         CLOUDY    73  69  88 E6        29.88F
6HR MIN TEMP:  67; 6HR MAX TEMP:  76; 6HR PCP:  0.03;

MINERAL WELLS  TSTM      68  66  93 NW7       29.88F FOG
6HR MIN TEMP:  67; 6HR MAX TEMP:  77; 6HR PCP:  0.22;

STEPHENVILLE   CLOUDY    78  71  76 SE6       29.88F
6HR MIN TEMP:  69; 6HR MAX TEMP:  80;

COMANCHE       PTSUNNY   82  71  70 S13G18    29.85F
6HR MIN TEMP:  69; 6HR MAX TEMP:  84;

BROWNWOOD      CLOUDY    79  72  78 SW13      29.87S
COLEMAN        TSTM      78  69  74 W6        29.88F
6HR MIN TEMP:  67; 6HR MAX TEMP:  82;

$$

TXZ143>147-156>162-174-175-311900-
CENTRAL TEXAS

CITY           SKY/WX    TMP DP  RH WIND       PRES   REMARKS
WACO           MOSUNNY   86  72  62 S12       29.84F HX  92
6HR MIN TEMP:  75; 6HR MAX TEMP:  86;

WACO-TSTC      PTSUNNY   86  72  62 S9G18     29.86F HX  92
HILLSBORO      MOSUNNY   83  73  72 S12       29.86F
6HR MIN TEMP:  72; 6HR MAX TEMP:  83;

CORSICANA      PTSUNNY   85  72  65 S12       29.88F HX  91
6HR MIN TEMP:  73; 6HR MAX TEMP:  85;

MEXIA          PTSUNNY   82  73  72 S8        29.87F
6HR MIN TEMP:  71; 6HR MAX TEMP:  82;

HEARNE         PTSUNNY   82  73  72 SE9       29.88F
6HR MIN TEMP:  71; 6HR MAX TEMP:  83;

CAMERON        CLOUDY    83  73  72 SE10      29.86F
6HR MIN TEMP:  72; 6HR MAX TEMP:  84;

TEMPLE         MOSUNNY   82  73  74 S14       29.86F
6HR MIN TEMP:  74; 6HR MAX TEMP:  83;

KILLEEN        CLOUDY    79  72  79 SE13      29.86F
6HR MIN TEMP:  74; 6HR MAX TEMP:  81;

KILLEEN-SKYLRK CLOUDY    80  73  79 SE12      29.87F
6HR MIN TEMP:  75; 6HR MAX TEMP:  82;

FORT HOOD      CLOUDY    79  72  78 SE13      29.84F
6HR MIN TEMP:  73; 6HR MAX TEMP:  82;

GATESVILLE     CLOUDY    82  72  69 S10       29.88F
HAMILTON       CLOUDY    82  70  68 S10       29.87F
6HR MIN TEMP:  73; 6HR MAX TEMP:  85;

LAMPASAS       CLOUDY    76  73  92 S3        29.88F
6HR MIN TEMP:  76; 6HR MAX TEMP:  81; 6HR PCP:  0.01;

$$

TXZ095>097-106>112-122>126-135>138-148>153-164>167-311900-
EAST TEXAS

CITY           SKY/WX    TMP DP  RH WIND       PRES   REMARKS
PARIS          MOSUNNY   84  66  54 S7        29.89F
6HR MIN TEMP:  66; 6HR MAX TEMP:  84;

SULPHUR SPRNGS PTSUNNY   88  68  50 S7        29.89F HX  91
6HR MIN TEMP:  71; 6HR MAX TEMP:  89;

MOUNT PLEASANT MOSUNNY   86  70  58 E3        29.89F HX  91
6HR MIN TEMP:  68; 6HR MAX TEMP:  86;

GILMER         MOSUNNY   84  70  61 S7        29.88F
MINEOLA        MOSUNNY   88  73  62 S3        29.88F HX  96
TYLER          PTSUNNY   86  70  58 VRB6      29.88F HX  90
6HR MIN TEMP:  71; 6HR MAX TEMP:  86;

LONGVIEW       MOSUNNY   85  70  60 S8        29.88F
6HR MIN TEMP:  68; 6HR MAX TEMP:  86;

MARSHALL       MOSUNNY   85  69  57 S3        29.92F
6HR MIN TEMP:  65; 6HR MAX TEMP:  85;

ATHENS         PTSUNNY   81  70  69 SW7       29.87F
PALESTINE      MOSUNNY   85  73  68 SE7       29.90F HX  91
JACKSONVILLE   PTSUNNY   83  71  65 S5        29.92F
HENDERSON      MOSUNNY   85  69  59 SE6       29.90F
6HR MIN TEMP:  68; 6HR MAX TEMP:  85;

CENTER         MOCLDY    87  70  58 S5        29.90F HX  91
6HR MIN TEMP:  71; 6HR MAX TEMP:  87;

NACOGDOCHES    MOSUNNY   84  70  61 S3        29.89F
6HR MIN TEMP:  66; 6HR MAX TEMP:  84;

LUFKIN         MOSUNNY   85  69  58 S5        29.90F
6HR MIN TEMP:  67; 6HR MAX TEMP:  86;

$$

SUPPLEMENTAL OBSERVATIONS (CENTRAL)

CITY           SKY/WX    TMP DP  RH WIND       PRES   REMARKS
LAKE TEXOMA      N/A     84  70  61 SW9         N/A
CADDO GRASSLND   N/A     86  72  62 S8          N/A  HX  92
PAT MAYSE LAKE   N/A     82  75  78 SE5         N/A
GREENVILLE       N/A     88  72  58 S7          N/A  HX  94
CEDAR HILL       N/A     84  72  65 S1G10       N/A
ATHENS           N/A     84  72  65 S8          N/A
LAKE LIMESTONE   N/A     84  72  65 S7          N/A
MCGREGOR         N/A     82  72  69 S13         N/A
TEMPLE           N/A     82  73  74 S10         N/A
$C1F1C2F2C3F3C4F4C5F5C6F6C7F7C8F8C9!



USA.gov is the U.S. government's official web portal to all federal, state and local government web resources and services.